Location: Cran-Gévrier
(45.9039°N, 6.1012°E)
Time: 06:02:24
(UTC+00:00)

IGS 5A - Pass Details

Date: 09 February 2023
Orbit: 578 x 583 km, 97.5° (Epoch: 27 March)

Event Time Altitude Azimuth Distance (km) Brightness Sun altitude
Exits shadow 18:51:49 45° 149° (SSE) 794 3.8 -21.1°
Maximum altitude 18:52:59 75° 75° (ENE) 606 3.3 -21.3°
Drops below altitude 10° 18:57:06 10° 351° (N) 1,905 6.2 -22.1°
Sets 18:59:16 0° 350° (N) 2,809 7.1 -22.4°
